This is the latest recevied weather packets stored in our database for station/object IW4DZV-13. If no packets are shown the sender has not sent any weather packets the latest 10 day(s).
| Time | Temp. | Humidity | Pressure | Rain* | Wind** | Luminosity | Snow |
|---|---|---|---|---|---|---|---|
| 1787413548 | 27.78° C | 62% | 1012.3 hPa | 1.27 mm | - | 213 W/m² | - |
| 1787412657 | 27.78° C | 62% | 1012.3 hPa | 1.27 mm | - | 70 W/m² | - |
| 1787411747 | 27.78° C | 62% | 1012.2 hPa | 1.27 mm | - | 72 W/m² | - |
| 1787410848 | 27.78° C | 60% | 1012.1 hPa | 1.27 mm | - | 90 W/m² | - |
| 1787409947 | 27.78° C | 61% | 1012.2 hPa | 1.27 mm | - | 186 W/m² | - |
| 1787409053 | 27.22° C | 61% | 1012.3 hPa | 1.27 mm | - | 79 W/m² | - |
| 1787408145 | 27.22° C | 61% | 1012.3 hPa | 1.27 mm | - | 107 W/m² | - |
| 1787407245 | 27.78° C | 62% | 1012.3 hPa | 1.27 mm | - | 135 W/m² | - |
| 1787406345 | 27.78° C | 61% | 1012.4 hPa | 1.27 mm | - | 146 W/m² | - |
| 1787405448 | 27.78° C | 60% | 1012.5 hPa | 1.27 mm | - | 162 W/m² | - |
| 1787403642 | 28.33° C | 60% | 1012.5 hPa | 1.27 mm | - | 881 W/m² | - |
| 1787402748 | 27.78° C | 62% | 1012.5 hPa | 1.27 mm | - | 812 W/m² | - |
| 1787401846 | 27.78° C | 64% | 1012.5 hPa | 1.27 mm | - | 870 W/m² | - |
| 1787400939 | 27.78° C | 64% | 1012.5 hPa | 1.27 mm | - | 858 W/m² | - |
| 1787400039 | 27.22° C | 66% | 1012.5 hPa | 1.02 mm | - | 824 W/m² | - |
| 1787399139 | 27.78° C | 64% | 1012.6 hPa | 1.02 mm | - | 369 W/m² | - |
| 1787398236 | 27.78° C | 66% | 1012.6 hPa | 1.02 mm | - | 891 W/m² | - |
| 1787397334 | 27.22° C | 65% | 1012.5 hPa | 1.02 mm | - | 858 W/m² | - |
| 1787396437 | 27.22° C | 66% | 1012.6 hPa | 1.02 mm | - | 810 W/m² | - |
| 1787395531 | 27.22° C | 66% | 1012.5 hPa | 1.02 mm | - | 817 W/m² | - |
| 1787394630 | 26.67° C | 70% | 1012.6 hPa | 1.02 mm | - | 831 W/m² | - |
| 1787393729 | 26.67° C | 67% | 1012.6 hPa | 1.02 mm | - | 854 W/m² | - |
| 1787392842 | 26.67° C | 69% | 1012.6 hPa | 1.02 mm | - | 828 W/m² | - |
| 1787391924 | 26.11° C | 71% | 1012.6 hPa | 0.76 mm | - | 800 W/m² | - |
| 1787391021 | 25.56° C | 72% | 1012.7 hPa | 0.76 mm | - | 830 W/m² | - |
* Rain since midnight (hover to see other rain measurements)
** Current wind speed in m/s (hover to see current wind gust speed)